Temperature
28 25 25 25 26 26 27 27 26 27 28 27 26 25 25 25 25 24 23 23 22 22 23 22 22 22 21 21 21 21 20 20 20 20 20 19 19 19 19 19 19 19 19 19
25 25 27 28 28 28 27 27 27 27 28 27 26 25 25 25 25 25 24 23 23 23 22 22 22 22 22 21 21 21 20 20 20 20 20 20 19 19 19 19 19 19 19 19
25 26 29 29 28 28 27 27 27 27 27 27 26 25 25 25 25 25 24 24 23 23 23 22 22 22 22 22 21 21 21 20 20 20 20 19 19 19 19 19 19 19 19 19
26 28 29 29 28 28 27 28 28 28 26 24 25 23 24 24 24 24 24 24 24 23 23 23 23 22 22 22 22 21 21 21 20 20 20 20 19 19 19 19 19 19 19 19
26 28 28 28 29 29 28 28 28 27 25 24 24 23 23 23 23 23 24 24 24 24 23 23 23 23 23 22 22 21 21 21 20 20 20 20 20 19 19 19 19 19 19 19
27 28 29 28 29 29 29 27 26 23 22 23 23 23 23 22 23 23 24 25 25 24 24 23 23 23 23 22 22 22 21 21 21 20 20 20 20 20 19 19 19 19 19 19
26 27 28 29 28 28 27 24 23 23 21 22 22 23 22 24 24 24 24 25 25 24 24 23 23 23 23 22 22 22 21 21 21 20 20 20 20 20 19 19 19 19 19 19
25 25 27 28 28 26 26 24 22 23 22 22 22 23 23 25 25 26 26 25 25 24 24 24 23 23 23 23 22 22 22 21 21 21 20 20 20 20 20 19 19 19 19 19
24 25 27 29 29 28 26 24 22 21 22 22 22 23 23 24 24 24 24 24 24 24 24 24 24 23 23 23 23 22 22 22 21 21 21 21 20 20 20 20 19 19 19 19
24 25 26 28 28 27 26 24 21 21 21 22 22 23 22 23 23 23 23 24 24 24 24 24 24 24 23 23 23 22 22 22 22 21 21 21 20 20 20 20 19 19 19 19
24 23 24 25 26 26 25 24 21 19 20 21 21 22 24 23 23 23 23 24 24 24 24 24 23 23 23 23 23 22 22 22 21 21 21 21 20 20 20 20 20 19 19 19
23 21 22 23 25 26 26 24 21 21 21 19 20 21 25 23 23 23 24 24 24 24 24 24 24 23 23 23 23 22 22 22 22 21 21 21 20 20 20 20 20 19 19 19
23 21 21 22 23 24 25 25 22 20 19 19 20 22 24 23 23 24 24 24 24 24 24 24 23 23 23 23 23 22 22 22 22 21 21 21 20 20 20 20 20 19 19 19
23 20 21 22 22 23 24 25 24 21 20 20 21 22 22 22 22 23 24 24 24 24 24 23 23 23 23 23 23 22 22 22 22 21 21 21 20 20 20 19 19 19 19 19
21 21 22 22 23 25 25 25 25 24 22 22 22 22 22 22 22 23 23 24 23 23 23 23 23 23 22 22 22 22 22 22 21 21 21 21 20 20 20 19 19 19 19 18
19 21 22 22 24 24 25 25 25 25 24 23 23 22 22 23 23 23 23 23 23 22 22 23 23 22 22 22 22 22 21 21 21 21 21 20 20 20 19 19 19 19 18 18
19 20 20 20 22 23 23 24 25 24 24 23 22 22 22 21 21 22 23 23 22 22 22 22 22 22 22 22 21 21 21 21 21 21 20 20 20 19 19 19 18 18 18 18
19 18 17 19 21 22 22 23 25 24 23 23 22 22 22 22 22 23 23 23 23 23 22 22 22 22 22 22 21 21 21 21 21 20 20 20 19 19 19 18 18 18 18 17
18 19 18 18 19 21 22 24 24 23 22 22 22 22 22 22 22 22 23 23 23 23 23 22 22 22 22 21 21 21 21 20 20 20 20 19 19 19 18 18 18 18 17 17
18 18 18 18 20 20 21 23 25 23 21 22 22 21 21 21 19 20 22 23 23 22 22 22 22 22 21 21 21 20 20 20 20 20 19 19 19 18 18 18 18 17 17 17
19 18 18 18 19 19 21 23 23 22 20 22 22 22 22 20 21 22 22 22 22 22 22 22 21 21 21 21 20 20 20 19 19 19 19 19 18 18 18 18 17 17 17 16
18 17 17 17 18 19 20 21 20 19 21 21 21 22 22 22 22 22 22 22 22 21 21 21 21 21 20 20 20 20 19 19 19 18 18 18 18 18 18 17 17 17 16 16
17 17 16 17 17 18 20 20 21 21 21 21 21 21 22 22 21 21 21 21 21 21 21 20 20 20 20 19 19 19 19 18 18 18 18 17 17 17 17 17 16 16 16 15
17 17 16 16 17 18 19 20 20 20 21 21 21 21 22 21 21 21 20 20 20 20 20 20 19 19 19 19 19 18 18 18 17 17 17 17 17 16 16 16 16 16 15 15
16 16 15 15 16 17 18 19 19 20 20 21 21 21 21 21 21 20 20 20 19 19 19 19 19 19 18 18 18 18 18 18 17 17 17 16 16 16 16 16 16 15 15 15
15 15 15 15 16 15 17 18 19 19 19 19 19 20 20 20 20 19 19 19 19 19 19 18 18 18 18 18 17 17 17 17 17 17 16 16 16 15 15 15 15 15 14 14
Wind_Speed
2 2 4 8 7 7 4 4 5 6 3 3 4 7 11 10 10 11 11 11 11 11 10 11 11 11 10 9 8 7 7 6 5 3 3 2 2 1 1 2 3 4 4 4
3 6 11 7 6 4 3 4 4 4 1 2 4 5 8 11 13 14 15 14 13 11 9 10 10 11 10 10 9 8 8 7 5 4 3 3 2 2 2 2 2 4 4 4
8 9 6 4 5 4 4 3 3 2 3 4 4 1 3 5 6 8 11 12 13 15 14 13 12 11 11 11 10 9 8 7 6 5 3 2 2 1 1 1 1 2 4 4
7 8 6 5 6 4 5 5 2 0 2 2 2 2 5 6 5 8 9 11 13 13 12 13 13 13 13 12 10 9 9 8 7 6 5 5 4 3 3 3 2 2 2 3
7 5 4 5 7 4 5 3 1 1 1 2 3 2 5 2 5 8 10 12 13 14 14 15 14 14 12 12 11 9 9 8 7 6 6 5 4 3 2 2 2 2 1 2
8 6 4 5 5 3 2 4 6 5 5 2 3 2 4 5 9 8 9 10 11 12 14 13 12 10 10 10 10 9 9 8 7 7 6 6 6 5 4 3 3 2 1 1
7 7 5 2 3 4 3 5 4 6 4 4 3 1 6 7 7 9 11 11 11 11 12 12 12 11 11 11 11 10 9 8 7 7 7 7 7 7 6 5 4 4 2 2
3 6 5 3 5 5 2 8 7 4 4 5 3 2 6 5 4 5 8 9 10 11 11 12 13 12 12 11 11 10 10 8 8 7 7 6 6 5 5 5 5 4 4 4
4 6 6 3 4 5 2 2 7 7 2 0 4 3 5 3 3 4 6 9 10 11 11 12 11 12 12 12 11 11 11 9 8 8 7 6 6 5 5 5 4 3 3 3
6 3 7 5 3 3 5 6 6 5 3 2 4 3 4 4 4 4 6 9 10 10 9 9 9 10 10 10 10 10 10 10 8 8 7 7 6 6 5 5 5 4 4 4
5 3 6 5 0 3 1 3 5 4 5 6 3 6 6 8 7 7 7 8 9 10 10 9 8 9 9 8 8 8 9 8 8 7 6 5 5 5 5 4 5 5 4 4
3 5 3 7 6 4 5 6 7 5 3 5 5 7 6 5 5 7 7 7 8 10 9 9 9 8 8 8 8 8 8 8 8 8 7 6 5 5 5 4 4 4 4 4
4 5 1 8 7 5 1 1 4 6 4 4 4 6 2 1 2 5 7 7 7 7 7 7 7 8 8 9 8 8 8 9 8 7 7 6 5 5 5 5 4 4 4 3
4 4 6 8 7 3 3 2 2 5 4 4 7 6 4 2 3 4 4 5 6 7 8 8 7 7 7 7 7 8 8 8 8 7 7 6 7 6 6 5 5 4 4 4
5 3 3 5 5 2 3 4 3 4 7 8 8 8 8 7 7 6 6 5 6 6 7 8 8 7 6 6 5 6 6 6 7 7 7 7 6 5 5 5 5 4 4 4
4 3 1 3 2 2 4 5 3 3 4 5 6 6 6 5 4 4 5 7 7 6 6 5 6 6 6 6 6 6 6 6 6 7 7 6 5 5 5 5 4 4 4 3
2 3 2 3 4 4 3 4 2 2 3 6 7 7 5 4 5 6 6 8 8 8 7 6 6 6 6 5 6 6 6 6 6 6 5 5 5 5 5 5 4 4 4 3
4 3 3 1 2 4 7 3 2 2 2 3 5 5 8 8 6 4 6 8 7 7 7 6 6 5 4 4 4 5 5 5 6 5 5 5 5 5 5 5 5 4 4 4
6 6 3 3 3 5 6 3 1 3 2 2 3 5 6 6 5 2 2 5 7 7 6 5 5 5 4 3 3 4 4 4 5 5 5 5 5 5 5 5 5 4 4 3
3 5 5 4 4 6 6 5 1 5 1 3 2 5 6 6 4 3 3 3 5 5 5 5 5 4 4 3 3 5 4 3 4 5 5 5 5 6 6 5 4 3 4 4
3 2 3 4 5 6 6 5 3 3 6 3 1 4 5 4 5 5 4 4 5 6 5 5 5 3 3 3 4 4 4 4 5 4 3 3 4 4 4 3 3 4 4 4
3 2 3 3 4 6 6 3 3 6 3 1 2 1 4 3 3 3 4 4 6 6 5 6 5 3 2 3 5 4 4 4 3 3 3 3 3 3 3 3 2 3 4 4
2 5 5 6 6 4 2 1 2 3 2 1 2 0 4 5 3 3 3 3 4 6 5 5 5 4 2 3 4 4 4 4 5 4 3 3 3 2 2 3 2 2 2 3
4 1 2 0 2 1 2 3 3 2 1 1 2 2 3 4 5 5 4 3 3 4 4 5 5 4 3 2 3 4 4 5 6 5 4 3 3 2 1 1 1 2 2 3
4 2 2 1 2 3 4 4 4 4 4 3 2 2 3 5 5 6 5 4 3 3 3 4 5 5 4 3 2 2 3 5 6 5 4 4 4 3 2 2 1 2 2 4
3 3 2 4 5 3 4 5 4 4 4 3 2 2 3 4 4 5 6 4 4 3 3 4 4 4 3 3 2 2 3 5 6 5 4 4 4 4 3 3 1 3 0 2
Wind_Direction
293 72 246 239 218 206 221 253 266 260 233 155 172 169 178 180 166 164 167 169 170 175 175 165 163 159 156 154 152 150 152 158 146 135 131 124 143 160 160 187 182 174 168 159
345 263 242 244 262 259 240 250 278 297 310 134 165 186 186 182 182 176 172 176 176 170 168 167 166 164 164 166 163 158 162 163 160 162 161 160 163 173 178 183 178 180 167 165
224 247 244 235 259 274 279 233 257 251 16 43 97 357 199 203 184 175 177 177 177 176 176 175 175 173 170 173 173 171 170 169 171 167 148 125 87 65 83 157 192 201 179 172
249 254 260 255 249 224 264 241 236 313 61 306 114 218 259 204 183 186 186 179 179 178 176 178 176 176 179 180 177 171 171 172 173 165 160 165 167 182 205 199 198 210 183 170
265 257 243 251 249 217 229 224 242 286 126 33 15 127 279 194 191 204 195 188 183 179 178 179 180 180 179 177 175 174 171 173 174 174 175 173 184 197 203 181 183 207 211 186
258 264 224 225 251 228 214 39 25 43 62 17 287 164 267 217 206 204 199 190 184 179 181 180 178 172 174 175 174 173 172 180 179 178 179 180 186 189 184 190 191 209 217 236
302 295 276 227 298 320 75 81 26 4 12 262 282 157 245 236 207 189 189 189 186 177 176 175 173 173 175 177 178 175 175 184 185 182 186 188 186 183 187 190 194 195 205 221
256 290 271 238 201 212 215 136 153 190 226 279 327 249 258 263 215 175 173 169 174 175 175 177 178 175 174 174 175 176 180 184 184 184 192 192 186 183 189 189 187 191 200 212
196 260 283 248 213 169 162 164 167 146 169 302 290 298 322 19 85 122 149 160 171 175 174 176 174 173 175 174 176 178 180 186 190 191 190 191 189 188 192 194 190 192 204 209
170 254 292 297 18 11 146 150 94 112 146 247 294 273 228 223 176 152 161 169 173 170 168 172 174 177 179 178 177 177 179 185 188 191 194 197 196 196 195 191 197 200 207 206
149 172 300 346 194 221 135 88 103 115 143 157 224 267 229 203 190 173 174 167 164 169 174 178 181 179 176 169 167 173 180 181 184 190 194 193 191 195 194 198 206 206 206 197
155 138 259 271 266 217 166 159 141 146 211 171 172 256 263 203 193 165 163 159 164 174 179 176 173 170 171 176 177 178 179 185 188 186 185 193 194 192 197 205 209 203 204 206
124 114 41 332 336 360 38 140 142 136 140 162 177 257 284 176 182 164 157 155 152 158 160 162 162 170 178 184 186 186 187 190 188 181 183 189 192 195 203 206 203 196 195 200
119 115 161 201 230 251 286 286 161 129 158 199 207 221 265 230 184 160 150 153 152 150 155 157 161 170 176 181 186 186 189 188 182 178 181 189 199 202 205 205 201 199 194 194
96 131 193 218 234 238 275 260 234 201 194 185 211 198 217 213 195 179 159 143 141 149 152 161 167 170 168 166 167 166 170 172 174 174 186 201 205 200 198 201 204 202 197 198
54 120 48 322 334 352 306 282 237 217 206 186 182 216 224 204 164 151 148 147 149 156 162 162 161 163 169 175 175 170 171 173 169 176 191 197 193 192 194 199 198 192 194 192
21 101 89 284 317 16 298 254 223 218 215 178 195 215 188 161 159 172 169 160 165 169 167 163 161 164 171 177 179 183 183 172 169 179 186 185 188 193 200 197 190 195 194 179
156 117 131 158 26 245 245 259 156 145 266 200 185 190 174 172 179 179 169 161 162 163 164 166 161 160 168 173 175 183 178 169 171 177 182 184 185 195 198 191 192 196 186 180
163 148 134 132 192 267 289 291 139 139 309 310 167 164 157 144 91 46 188 166 168 168 164 168 163 155 152 155 168 160 164 169 173 181 185 189 189 194 197 196 198 191 175 182
100 122 135 148 173 226 248 281 248 103 317 291 165 165 152 126 130 230 225 156 148 141 140 139 135 131 139 159 141 135 148 159 184 191 190 186 186 189 194 195 194 185 174 185
25 55 156 178 204 252 267 289 44 135 223 281 154 166 153 159 189 198 176 147 150 137 133 128 128 137 163 162 135 138 151 181 196 181 164 158 167 174 176 175 174 167 170 175
179 170 201 171 199 248 305 29 148 202 205 118 56 146 142 134 128 138 143 144 145 137 139 137 134 143 154 146 141 150 176 193 168 149 150 153 157 156 146 147 166 169 165 168
184 192 192 190 212 242 311 154 207 163 134 107 77 99 128 126 136 136 138 141 143 141 147 147 143 145 152 159 158 174 201 175 153 144 150 150 138 133 138 150 161 158 163 171
308 339 121 321 274 323 24 33 16 36 92 130 101 115 133 147 156 152 151 150 143 148 150 152 146 149 166 175 176 189 189 164 152 155 159 149 141 138 119 125 152 162 175 181
270 334 41 304 291 355 356 352 340 347 14 33 40 75 142 149 160 163 161 165 159 154 161 155 160 168 176 170 182 194 166 147 152 160 162 156 153 156 146 122 137 181 204 195
248 186 175 232 241 211 259 291 325 359 15 28 28 48 122 143 154 155 162 167 158 156 159 150 158 166 175 167 171 175 152 148 149 156 162 165 161 158 154 143 59 10 286 193
Height
1499 1505 1510 1505 1503 1504 1507 1511 1512 1504 1495 1500 1505 1506 1505 1506 1509 1511 1513 1515 1517 1519 1522 1523 1526 1528 1529 1531 1532 1534 1535 1537 1538 1538 1539 1540 1540 1541 1541 1542 1542 1542 1542 1542
1505 1508 1498 1495 1496 1499 1503 1510 1509 1502 1495 1499 1505 1506 1503 1504 1505 1506 1509 1512 1515 1518 1521 1523 1525 1527 1528 1530 1531 1533 1535 1536 1537 1538 1539 1540 1540 1541 1541 1541 1542 1542 1542 1542
1508 1500 1492 1494 1497 1501 1503 1507 1506 1505 1500 1500 1507 1514 1509 1506 1505 1507 1509 1510 1513 1515 1518 1521 1523 1525 1527 1529 1530 1532 1534 1535 1536 1538 1539 1540 1540 1540 1541 1540 1541 1541 1541 1541
1499 1492 1492 1495 1497 1498 1508 1496 1497 1501 1510 1520 1514 1534 1516 1508 1507 1507 1508 1509 1511 1514 1516 1518 1521 1523 1525 1527 1529 1531 1533 1534 1536 1537 1538 1538 1539 1539 1539 1540 1540 1541 1541 1541
1498 1490 1492 1496 1492 1491 1497 1491 1495 1500 1510 1520 1518 1530 1524 1511 1512 1507 1505 1506 1507 1510 1513 1515 1518 1520 1523 1526 1528 1530 1532 1533 1535 1536 1537 1537 1538 1538 1539 1539 1539 1540 1540 1540
1491 1485 1486 1487 1485 1486 1488 1493 1499 1508 1519 1535 1526 1530 1529 1515 1507 1504 1503 1504 1506 1508 1511 1513 1516 1519 1522 1524 1526 1528 1530 1532 1533 1534 1535 1536 1536 1537 1537 1538 1538 1538 1538 1538
1496 1488 1483 1483 1489 1488 1491 1511 1533 1538 1546 1542 1523 1526 1524 1502 1496 1496 1498 1501 1504 1506 1509 1511 1514 1517 1519 1522 1524 1526 1528 1530 1531 1532 1533 1534 1535 1535 1536 1536 1536 1536 1536 1536
1510 1507 1487 1482 1487 1494 1495 1508 1535 1548 1550 1541 1525 1527 1512 1494 1492 1493 1495 1498 1502 1505 1507 1509 1511 1514 1516 1519 1521 1523 1526 1527 1529 1530 1531 1532 1533 1534 1534 1534 1535 1535 1535 1535
1508 1505 1483 1479 1478 1483 1496 1506 1509 1528 1535 1542 1534 1520 1506 1493 1493 1493 1496 1497 1500 1502 1505 1507 1510 1512 1514 1517 1519 1521 1523 1525 1527 1528 1529 1530 1531 1532 1532 1532 1533 1533 1534 1534
1493 1502 1488 1480 1478 1480 1486 1496 1513 1528 1543 1549 1537 1526 1519 1504 1499 1496 1495 1496 1498 1500 1503 1506 1508 1510 1512 1515 1517 1519 1521 1523 1524 1526 1527 1528 1529 1529 1530 1530 1530 1531 1531 1531
1487 1501 1497 1488 1489 1492 1492 1499 1511 1525 1530 1545 1548 1532 1498 1497 1493 1493 1493 1494 1496 1499 1502 1504 1507 1509 1511 1513 1515 1517 1518 1520 1522 1523 1525 1526 1527 1527 1528 1528 1528 1528 1529 1529
1485 1498 1507 1496 1483 1478 1484 1493 1507 1524 1530 1532 1538 1527 1489 1490 1489 1490 1492 1493 1495 1497 1500 1502 1505 1507 1509 1511 1512 1514 1515 1517 1519 1521 1522 1523 1524 1525 1525 1525 1526 1526 1526 1526
1483 1499 1515 1511 1500 1488 1488 1489 1496 1507 1520 1529 1534 1521 1489 1489 1489 1489 1490 1492 1494 1495 1498 1501 1503 1504 1506 1508 1510 1512 1513 1515 1517 1518 1519 1520 1521 1522 1522 1522 1523 1523 1523 1523
1478 1496 1508 1515 1508 1496 1493 1490 1491 1503 1519 1522 1516 1508 1495 1490 1489 1488 1489 1490 1492 1494 1496 1498 1500 1502 1503 1505 1507 1509 1510 1512 1514 1516 1517 1517 1518 1518 1519 1519 1520 1520 1520 1521
1480 1494 1493 1493 1488 1486 1488 1487 1487 1494 1499 1507 1503 1499 1492 1487 1487 1486 1487 1488 1491 1493 1494 1496 1498 1500 1501 1503 1505 1506 1507 1509 1511 1512 1513 1514 1515 1515 1516 1516 1517 1517 1517 1518
1483 1491 1492 1493 1485 1485 1487 1483 1483 1485 1487 1491 1493 1494 1484 1483 1484 1485 1486 1487 1489 1491 1493 1494 1496 1498 1499 1501 1502 1503 1504 1506 1508 1509 1510 1511 1511 1512 1512 1512 1513 1513 1514 1514
1488 1493 1500 1504 1491 1489 1496 1485 1483 1484 1482 1485 1492 1488 1482 1483 1483 1483 1484 1486 1487 1489 1490 1492 1493 1495 1497 1498 1499 1500 1500 1502 1504 1505 1506 1507 1507 1508 1508 1509 1509 1509 1510 1510
1487 1495 1503 1505 1500 1509 1494 1476 1475 1479 1479 1478 1478 1478 1478 1479 1480 1482 1483 1484 1486 1487 1489 1490 1492 1493 1495 1496 1497 1497 1498 1499 1500 1501 1502 1503 1504 1504 1504 1505 1505 1505 1506 1506
1479 1489 1501 1510 1511 1502 1486 1476 1475 1479 1483 1477 1477 1476 1477 1478 1480 1483 1483 1483 1484 1485 1487 1488 1489 1491 1492 1493 1494 1495 1495 1496 1497 1498 1498 1500 1500 1501 1501 1501 1501 1502 1502 1503
1477 1483 1497 1505 1507 1507 1489 1474 1470 1475 1487 1477 1476 1475 1476 1477 1485 1484 1482 1482 1483 1484 1485 1486 1487 1488 1489 1490 1491 1491 1492 1493 1493 1494 1495 1496 1497 1497 1497 1497 1498 1499 1499 1499
1488 1491 1496 1501 1503 1495 1479 1472 1471 1489 1489 1476 1474 1474 1475 1476 1478 1479 1480 1481 1482 1482 1484 1485 1486 1487 1487 1488 1489 1488 1489 1490 1491 1491 1492 1493 1493 1494 1494 1494 1495 1495 1496 1496
1491 1496 1498 1500 1503 1498 1476 1473 1478 1480 1475 1475 1474 1473 1473 1474 1476 1477 1478 1479 1480 1481 1482 1483 1483 1484 1485 1486 1486 1486 1486 1487 1487 1488 1489 1490 1491 1491 1492 1492 1492 1492 1492 1493
1487 1488 1489 1490 1491 1480 1476 1475 1475 1473 1473 1474 1474 1474 1473 1473 1475 1476 1477 1478 1478 1479 1480 1481 1481 1482 1483 1483 1483 1483 1483 1484 1484 1486 1487 1487 1488 1489 1490 1490 1490 1489 1490 1490
1482 1479 1482 1484 1480 1478 1476 1475 1474 1473 1472 1472 1472 1472 1472 1472 1472 1474 1475 1476 1477 1477 1478 1478 1479 1479 1480 1480 1481 1480 1480 1480 1481 1482 1483 1484 1486 1486 1487 1487 1488 1488 1488 1488
1483 1480 1482 1483 1479 1477 1475 1475 1474 1473 1471 1470 1470 1470 1470 1469 1470 1471 1473 1474 1474 1475 1475 1476 1476 1476 1477 1477 1478 1478 1477 1477 1478 1479 1480 1482 1483 1484 1485 1486 1486 1486 1486 1486
1480 1481 1483 1484 1479 1478 1476 1475 1474 1472 1471 1470 1469 1468 1468 1467 1467 1469 1470 1471 1472 1473 1473 1474 1474 1474 1474 1475 1475 1475 1475 1475 1476 1477 1478 1480 1481 1482 1483 1483 1484 1484 1485 1485